ATLAS 5 CENTAUR DEB, 44643

Orbit data source: Space-Track

ATLAS 5 CENTAUR DEB, 44643 is space debris in HEO originally from a launch on Wed, 17 Oct 2018 UTC launched from the Air Force Eastern Test Range (AFETR). Debris objects in space refer to the collection of defunct objects orbiting the Earth. Examples of debris include non-operational satellites, rocket bodies, and fragments generated from explosions, collisions, or faulty payload assembly.

Loading next visibility...
Identifier
44643, 2018-079D
Orbit
HEO
Country
Flag of USUS
Related business
Flag of USUnited Launch Alliance/Lockheed Martin (US)
Manufacturer
ULA Decatur
Mission
Spacecraft
Bus & Motor
Unknown
Mass
Unknown
Launch date (UTC)
2018-10-17 (8 years ago)
Launch vehicle
Unknown
Launch site
Air Force Eastern Test Range (AFETR)
Object type
Payload
Rocket body
Debris
Shape & HBR
Unknown shape, 1.1 m
Radar Cross Section
Medium (>0.1 m² and <1 m²)

Expand to show TLE details & history
Last TLE update: 1 week ago

TLE from 1 week ago
0 ATLAS 5 CENTAUR DEB
1 44643U 18079D   26240.04431926 -.00000167  00000-0  00000-0 0  9994
2 44643  14.0034  17.3200 4744857 342.1394   5.5409  1.81957848 48559
Epoch: 2026-08-28T01:03Z
TLE epoch observation values (Epoch: 2026-08-28T01:03:49.184Z)
Latitude
-0.00002°
Longitude
25.12172°
Altitude
8,730.953 km
Speed
6.221 km/s
True Right ascension
01h 09m 24s
True Declination
0° 00' 00"
Sunlit
Object was in daylight at epoch
Visualization orbit readout
Latitude
Unknown
Longitude
Unknown
Altitude
Unknown
Speed
Unknown
Apparent Right ascension
Unknown
Apparent Declination
Unknown
Sunlit
N/A
Visualization observer readout
Local Sidereal Time
13:51:27
Azimuth
Unknown
Elevation
Unknown
Doppler factor
Unknown
Orbital elements
Apogee altitude
35,413.943 km
Perigee altitude
8,516.776 km
Semi-major axis
28,343.497 km
Eccentricity
0.47449
Inclination
14.0034°
RAAN
17.32°
Arg. of periapsis
342.1394°
True anomaly
17.48512°
Mean anomaly
5.5409°
Eccentric anomaly
10.49093°
Mean motion
0.45484 °/min
Orbital period
791.48 mins
BSTAR
0
Loading maneuver chart data...
Computing Atmospheric mass density...

Documentation

Showing up to 5 results
|